Turaif, Saudi Arabia

3:34 AM AST on December 11, 2016 (GMT +0300)
Turaif

Weather History for OETR - October, 2012

Change the Weather History Date:

Friday, October 26, 2012

  Actual Average Record
Temperature  
Mean Temperature 63 °F -  
Max Temperature 73 °F 68 °F 89 °F (2004)
Min Temperature 53 °F 46 °F 46 °F (2005)
Degree Days  
Heating Degree Days 2    
Growing Degree Days 13 (Base 50)    
Moisture  
Dew Point 51 °F    
Average Humidity 61    
Maximum Humidity 88    
Minimum Humidity 30    
Precipitation  
Precipitation 0.00 in - - ()
Sea Level Pressure  
Sea Level Pressure 29.95 in    
Wind  
Wind Speed 4 mph ()    
Max Wind Speed 9 mph    
Max Gust Speed -    
Visibility 6.1 miles    
Events      
Averages and records for this station are not official NWS values.
T = Trace of Precipitation, MM = Missing Value Source: Averaged Metar Reports

Daily Weather History Graph

Daily Weather History Graph

Search for Another Location

Airport or City:

Trip Planner

Search our weather history database for the weather conditions in past years. The results will help you decide how hot, cold, wet, or windy it might be!

Date:

Astronomy

Oct. 26, 2012 Rise Set
Actual Time 6:36 AM AST 5:40 PM AST
Civil Twilight 6:11 AM AST 6:05 PM AST
Nautical Twilight 5:43 AM AST 6:34 PM AST
Astronomical Twilight 5:14 AM AST 7:02 PM AST
Moon 3:37 PM AST (10/26) 3:22 AM AST (10/26)
Length of Visible Light 11h 54m
Length of Day
11h 04m
Waxing Gibbous, 89% of the Moon is Illuminated
Oct 26
Waxing Gibbous
Oct 29
Full
Nov 7
Last Quarter
Nov 14
New
Nov 20
First Quarter

Hourly Weather History & Observations

Time (AST) Temp. Dew Point Humidity Pressure Visibility Wind Dir Wind Speed Gust Speed Precip Events Conditions
12:00 AM 61 °F 52 °F 64%  in 6 mi NNW 5.8 mph - -  
12:00 AM 60.8 °F 51.8 °F 72% 29.95 in - NNW 5.8 mph - N/A   Clear
1:00 AM 59.0 °F 51.8 °F 77% 29.95 in - NW 5.8 mph - N/A   Clear
2:00 AM 59.0 °F 51.8 °F 77% 29.95 in - Calm Calm - N/A   Clear
3:00 AM 57 °F 52 °F 77%  in 6 mi WNW 4.6 mph - -  
3:00 AM 57.2 °F 51.8 °F 82% 29.95 in - WNW 4.6 mph - N/A   Clear
4:00 AM 55.4 °F 51.8 °F 88% 29.95 in - NW 4.6 mph - N/A   Clear
5:00 AM 53.6 °F 50.0 °F 88% 29.92 in - NNW 4.6 mph - N/A   Clear
6:00 AM 54 °F 50 °F 82%  in 6 mi NW 6.9 mph - -  
6:00 AM 53.6 °F 50.0 °F 88% 29.95 in - NW 6.9 mph - N/A   Clear
7:00 AM 53.6 °F 50.0 °F 88% 29.95 in - NNW 4.6 mph - N/A   Clear
8:00 AM 59.0 °F 53.6 °F 82% 29.98 in - Calm Calm - N/A   Clear
9:00 AM 63 °F 54 °F 63%  in 6 mi SE 3.5 mph - -   Partly Cloudy
9:00 AM 62.6 °F 53.6 °F 72% 29.98 in - SE 3.5 mph - N/A   Clear
10:00 AM 66.2 °F 51.8 °F 60% 29.98 in - NW 3.5 mph - N/A   Clear
11:00 AM 68.0 °F 51.8 °F 56% 29.98 in - West 5.8 mph - N/A   Clear
12:00 PM 70 °F 50 °F 38%  in 6 mi WSW 4.6 mph - -   Partly Cloudy
12:00 PM 69.8 °F 50.0 °F 49% 29.98 in - WSW 4.6 mph - N/A   Clear
1:00 PM 71.6 °F 50.0 °F 46% 29.95 in - WSW 6.9 mph - N/A   Clear
2:00 PM 73.4 °F 44.6 °F 36% 29.92 in - WSW 6.9 mph - N/A   Clear
3:00 PM 73 °F 48 °F 30%  in 6 mi West 9.2 mph - -   Partly Cloudy
3:00 PM 73.4 °F 48.2 °F 41% 29.92 in 6.2 mi West 9.2 mph - N/A   Mostly Cloudy
4:00 PM 73.4 °F 48.2 °F 41% 29.92 in 6.2 mi WSW 4.6 mph - N/A   Mostly Cloudy
5:00 PM 73.4 °F 48.2 °F 41% 29.92 in 6.2 mi West 6.9 mph - N/A   Scattered Clouds
6:00 PM 70 °F 48 °F 35%  in 6 mi WSW 4.6 mph - -   Scattered Clouds
6:00 PM 69.8 °F 48.2 °F 46% 29.92 in 6.2 mi WSW 4.6 mph - N/A   Scattered Clouds
7:00 PM 68.0 °F 48.2 °F 49% 29.95 in - West 3.5 mph - N/A   Clear
8:00 PM 66.2 °F 50.0 °F 56% 29.95 in - Calm Calm - N/A   Clear
9:00 PM 66 °F 52 °F 50%  in 6 mi WNW 6.9 mph - -   Partly Cloudy
9:00 PM 66.2 °F 51.8 °F 60% 29.95 in 6.2 mi WNW 6.9 mph - N/A   Mostly Cloudy
10:00 PM 64.4 °F 51.8 °F 64% 29.95 in 6.2 mi NW 4.6 mph - N/A   Mostly Cloudy
11:00 PM 64.4 °F 51.8 °F 64% 29.98 in - WNW 4.6 mph - N/A   Clear